When you browse on this site, cookies collect data to enhance your experience and personalize the content and advertising you see.
Visit our Privacy Policy to learn more. By continuing to use the site, you agree to this use of cookies and data.
  • En España
  • Lista de países
  • Para 7 días
  • Temperatura del agua
  • Mapa Satelital
  • El tiempo en el mapa
  • Informadores
  • user-avatar
    Iniciar sesión

    Tiempo cada hora Mérida

    Hoy, 25 Abril, Jueves

    Tiempo Temperatura Precipitaciones Viento Presión Humedad
    00:00 +16°C° 0.8 mm 0 mps 593 mmHg 89%
    01:00 +15°C° 0 mm 0 mps 593 mmHg 90%
    02:00 +16°C° 0.8 mm 1 mps 593 mmHg 89%
    03:00 +16°C° 0.8 mm 1 mps 593 mmHg 88%
    04:00 +16°C° 0.8 mm 1 mps 593 mmHg 88%
    05:00 +18°C° 0.8 mm 1 mps 593 mmHg 86%
    06:00 +18°C° 0.8 mm 1 mps 594 mmHg 85%
    07:00 +18°C° 0 mm 1 mps 594 mmHg 83%
    08:00 +19°C° 0.7 mm 1 mps 595 mmHg 81%
    09:00 +20°C° 0.7 mm 1 mps 595 mmHg 79%
    10:00 +21°C° 0.7 mm 1 mps 595 mmHg 78%
    11:00 +21°C° 1.6 mm 1 mps 595 mmHg 79%
    12:00 +21°C° 1.6 mm 1 mps 594 mmHg 80%
    13:00 +21°C° 1.6 mm 1 mps 594 mmHg 82%
    14:00 +20°C° 1.3 mm 1 mps 594 mmHg 83%
    15:00 +20°C° 1.3 mm 1 mps 593 mmHg 85%
    16:00 +20°C° 1.3 mm 1 mps 593 mmHg 87%
    17:00 +19°C° 1.3 mm 1 mps 593 mmHg 88%
    18:00 +19°C° 1.3 mm 1 mps 593 mmHg 89%
    19:00 +19°C° 1.3 mm 1 mps 593 mmHg 91%
    20:00 +19°C° 1 mm 1 mps 594 mmHg 90%
    21:00 +18°C° 1 mm 1 mps 594 mmHg 90%
    22:00 +18°C° 1 mm 1 mps 595 mmHg 89%
    23:00 +18°C° 1.1 mm 1 mps 594 mmHg 88%

    Mañana, 26 Abril, Viernes

    Tiempo Temperatura Precipitaciones Viento Presión Humedad
    00:00 +18°C° 1.1 mm 1 mps 594 mmHg 88%
    01:00 +18°C° 1.1 mm 1 mps 594 mmHg 87%
    02:00 +18°C° 1.5 mm 1 mps 593 mmHg 87%
    03:00 +18°C° 1.5 mm 1 mps 593 mmHg 87%
    04:00 +16°C° 1.5 mm 1 mps 593 mmHg 87%
    05:00 +18°C° 1.1 mm 1 mps 594 mmHg 86%
    06:00 +18°C° 1.1 mm 1 mps 594 mmHg 85%
    07:00 +18°C° 1.1 mm 1 mps 594 mmHg 84%
    08:00 +19°C° 0.9 mm 1 mps 595 mmHg 83%
    09:00 +19°C° 0.9 mm 1 mps 595 mmHg 82%
    10:00 +20°C° 0.9 mm 1 mps 595 mmHg 81%
    11:00 +20°C° 1.8 mm 1 mps 595 mmHg 81%
    12:00 +20°C° 1.8 mm 1 mps 594 mmHg 82%
    13:00 +20°C° 1.8 mm 1 mps 594 mmHg 82%
    14:00 +19°C° 3.9 mm 1 mps 593 mmHg 84%
    15:00 +19°C° 3.9 mm 1 mps 592 mmHg 87%
    16:00 +18°C° 3.9 mm 1 mps 592 mmHg 89%
    17:00 +18°C° 3.5 mm 1 mps 592 mmHg 89%
    18:00 +18°C° 3.5 mm 1 mps 592 mmHg 89%
    19:00 +18°C° 3.5 mm 1 mps 592 mmHg 89%
    20:00 +16°C° 1.7 mm 1 mps 593 mmHg 88%
    21:00 +16°C° 1.7 mm 1 mps 593 mmHg 87%
    22:00 +16°C° 1.7 mm 1 mps 594 mmHg 86%
    23:00 +16°C° 2.1 mm 1 mps 593 mmHg 86%

    Pasado mañana, 27 Abril, Sábado

    Tiempo Temperatura Precipitaciones Viento Presión Humedad
    00:00 +16°C° 2.1 mm 1 mps 593 mmHg 86%
    01:00 +16°C° 2.1 mm 2 mps 592 mmHg 87%
    02:00 +16°C° 2.1 mm 2 mps 592 mmHg 86%
    03:00 +16°C° 2.1 mm 2 mps 592 mmHg 86%
    04:00 +15°C° 2.1 mm 2 mps 592 mmHg 86%
    05:00 +16°C° 2.6 mm 2 mps 592 mmHg 85%
    06:00 +16°C° 2.6 mm 2 mps 593 mmHg 85%
    07:00 +16°C° 2.6 mm 2 mps 593 mmHg 84%
    08:00 +17°C° 2.6 mm 2 mps 594 mmHg 83%
    09:00 +18°C° 2.6 mm 2 mps 594 mmHg 82%
    10:00 +18°C° 2.6 mm 2 mps 595 mmHg 81%
    11:00 +20°C° 1.7 mm 1 mps 594 mmHg 81%
    12:00 +20°C° 1.7 mm 1 mps 594 mmHg 81%
    13:00 +20°C° 1.7 mm 1 mps 594 mmHg 81%
    14:00 +20°C° 2.5 mm 1 mps 593 mmHg 83%
    15:00 +20°C° 2.5 mm 1 mps 592 mmHg 86%
    16:00 +19°C° 2.5 mm 1 mps 592 mmHg 89%
    17:00 +19°C° 2.2 mm 1 mps 592 mmHg 89%
    18:00 +18°C° 2.2 mm 1 mps 592 mmHg 90%
    19:00 +18°C° 2.2 mm 1 mps 592 mmHg 91%
    20:00 +18°C° 1.1 mm 1 mps 593 mmHg 90%
    21:00 +18°C° 1.1 mm 1 mps 593 mmHg 89%
    22:00 +16°C° 1.1 mm 1 mps 593 mmHg 88%
    23:00 +16°C° 0.7 mm 1 mps 593 mmHg 87%

    28 Abril, Domingo

    Tiempo Temperatura Precipitaciones Viento Presión Humedad
    00:00 +16°C° 0.7 mm 2 mps 592 mmHg 86%
    01:00 +16°C° 0.7 mm 2 mps 592 mmHg 86%
    02:00 +15°C° 0.2 mm 2 mps 592 mmHg 85%
    03:00 +15°C° 0.2 mm 2 mps 592 mmHg 85%
    04:00 +15°C° 0.2 mm 2 mps 591 mmHg 84%
    05:00 +16°C° 0.1 mm 2 mps 592 mmHg 83%
    06:00 +16°C° 0.1 mm 2 mps 593 mmHg 81%
    07:00 +17°C° 0.1 mm 2 mps 593 mmHg 79%
    08:00 +18°C° 0 mm 2 mps 594 mmHg 73%
    09:00 +20°C° 0 mm 2 mps 595 mmHg 67%
    10:00 +23°C° 0 mm 2 mps 596 mmHg 61%
    11:00 +21°C° 0.3 mm 2 mps 596 mmHg 63%
    12:00 +21°C° 0.3 mm 2 mps 595 mmHg 64%
    13:00 +21°C° 0.3 mm 2 mps 594 mmHg 65%
    14:00 +21°C° 1 mm 2 mps 594 mmHg 67%
    15:00 +21°C° 1 mm 2 mps 593 mmHg 70%
    16:00 +21°C° 1 mm 1 mps 593 mmHg 72%
    17:00 +20°C° 0.3 mm 1 mps 593 mmHg 75%
    18:00 +19°C° 0.3 mm 1 mps 593 mmHg 79%
    19:00 +18°C° 0.3 mm 1 mps 593 mmHg 82%
    20:00 +18°C° 0 mm 1 mps 593 mmHg 77%
    21:00 +18°C° 0 mm 1 mps 593 mmHg 72%
    22:00 +16°C° 0 mm 1 mps 593 mmHg 67%
    23:00 +16°C° 0 mm 2 mps 593 mmHg 64%

    29 Abril, Lunes

    Tiempo Temperatura Precipitaciones Viento Presión Humedad
    00:00 +16°C° 0 mm 2 mps 592 mmHg 61%
    01:00 +15°C° 0 mm 2 mps 592 mmHg 58%
    02:00 +15°C° 0 mm 2 mps 592 mmHg 57%
    03:00 +15°C° 0 mm 2 mps 592 mmHg 56%
    04:00 +14°C° 0 mm 3 mps 591 mmHg 56%
    05:00 +14°C° 0 mm 3 mps 592 mmHg 58%
    06:00 +16°C° 0 mm 3 mps 593 mmHg 61%
    07:00 +17°C° 0 mm 3 mps 594 mmHg 63%
    08:00 +19°C° 0 mm 3 mps 595 mmHg 61%
    09:00 +21°C° 0 mm 2 mps 596 mmHg 58%
    10:00 +23°C° 0 mm 2 mps 596 mmHg 56%
    11:00 +23°C° 0.5 mm 2 mps 596 mmHg 57%
    12:00 +23°C° 0.5 mm 2 mps 595 mmHg 58%
    13:00 +23°C° 0.5 mm 2 mps 595 mmHg 60%
    14:00 +21°C° 0.5 mm 2 mps 594 mmHg 60%
    15:00 +21°C° 0.5 mm 2 mps 593 mmHg 61%
    16:00 +20°C° 0.5 mm 2 mps 593 mmHg 62%
    17:00 +20°C° 0.1 mm 1 mps 593 mmHg 65%
    18:00 +19°C° 0.1 mm 1 mps 593 mmHg 68%
    19:00 +16°C° 0.1 mm 1 mps 592 mmHg 71%
    20:00 +16°C° 0 mm 1 mps 593 mmHg 67%
    21:00 +16°C° 0 mm 1 mps 593 mmHg 63%
    22:00 +15°C° 0 mm 2 mps 593 mmHg 59%
    23:00 +15°C° 0 mm 2 mps 593 mmHg 58%

    30 Abril, Martes

    Tiempo Temperatura Precipitaciones Viento Presión Humedad
    00:00 +15°C° 0 mm 2 mps 592 mmHg 57%
    01:00 +14°C° 0 mm 2 mps 592 mmHg 56%
    02:00 +15°C° 0 mm 2 mps 592 mmHg 57%
    03:00 +14°C° 0 mm 3 mps 592 mmHg 58%
    04:00 +14°C° 0 mm 3 mps 592 mmHg 60%
    05:00 +16°C° 0 mm 3 mps 593 mmHg 60%
    06:00 +17°C° 0 mm 3 mps 593 mmHg 61%
    07:00 +18°C° 0 mm 3 mps 594 mmHg 61%
    08:00 +19°C° 0 mm 3 mps 595 mmHg 60%
    09:00 +21°C° 0 mm 2 mps 596 mmHg 59%
    10:00 +23°C° 0 mm 2 mps 597 mmHg 58%
    11:00 +23°C° 0.3 mm 2 mps 596 mmHg 58%
    12:00 +23°C° 0.3 mm 2 mps 595 mmHg 57%
    13:00 +23°C° 0.3 mm 2 mps 595 mmHg 56%
    14:00 +21°C° 0.5 mm 2 mps 594 mmHg 58%
    15:00 +20°C° 0.5 mm 2 mps 593 mmHg 60%
    16:00 +21°C° 0.5 mm 1 mps 593 mmHg 62%
    17:00 +20°C° 0.2 mm 1 mps 593 mmHg 62%
    18:00 +18°C° 0.2 mm 2 mps 593 mmHg 62%
    19:00 +17°C° 0.2 mm 2 mps 593 mmHg 62%
    20:00 +17°C° 0.1 mm 2 mps 593 mmHg 57%
    21:00 +16°C° 0.1 mm 2 mps 593 mmHg 53%
    22:00 +16°C° 0.1 mm 2 mps 594 mmHg 48%
    23:00 +16°C° 0.2 mm 2 mps 593 mmHg 51%
    Mostrar más